P/2010 LH155 (2025)

Japanese version
Home page
Updated on May 3, 2025

---------------------------------------------------------------------

* Profile

* Pictures

* Orbital Elements

                    Epoch = 2025 Mar. 26.0 TT
     T = 2025 Apr.  9.00756 TT        Peri. = 308.51807
     e = 0.4059777                    Node  = 221.11908 2000.0
     q = 2.2240464 AU                 Incl. =   8.80684
       a =  3.7440455 AU   n = 0.13604807   P =   7.24 years

* Magnitudes Graph

        m1 = -16.5 + 5 log d + 95 log r  [ ,0]  (             - 2025 Apr.  9)
        m1 =   6.0 + 5 log d + 30 log r  [0, ]  (2025 Apr.  9 -             )

        * Gray curve is:  H = 17.0  G = 0.15

---------------------------------------------------------------------

The orbital elements are printed on CBET 5540.
The magnitudes graphs are made with Comet for Windows.

---------------------------------------------------------------------

Copyright(C) Seiichi Yoshida (comet@aerith.net). All rights reserved.